Weather reports worldwide

Advertisment
Bangkok, Thailand (48455): temperature & dewpoint: 07.12.2018 16:00:00 - 13.12.2018 16:00:00 (ICT)Bangkok, Thailand (48455): wind speed: 07.12.2018 16:00:00 - 13.12.2018 16:00:00 (ICT)Bangkok, Thailand (48455): wind direction: 07.12.2018 16:00:00 - 13.12.2018 16:00:00 (ICT)Bangkok, Thailand (48455): reduced air pressure: 07.12.2018 16:00:00 - 13.12.2018 16:00:00 (ICT)Bangkok, Thailand (48455): visibility: 07.12.2018 16:00:00 - 13.12.2018 16:00:00 (ICT)Bangkok, Thailand (48455): precipitation: 07.12.2018 16:00:00 - 13.12.2018 16:00:00 (ICT)
Date & Time tt [°C] td [°C] ff [km/h] ff [kn] dd ppp [hPa] vv [km] rr [mm]
13.12.2018 16:00:00 31,5 20,6 2 1 E 1011,9 10 -
13.12.2018 15:00:00 - - - - - - - -
13.12.2018 14:00:00 - - - - - - - -
13.12.2018 13:00:00 31,5 20,2 2 1 E 1013,6 10 -
13.12.2018 12:00:00 - - - - - - - -
13.12.2018 11:00:00 - - - - - - - -
13.12.2018 10:00:00 28,4 20,2 8 4 E 1016,2 10 -
13.12.2018 09:00:00 - - - - - - - -
13.12.2018 08:00:00 - - - - - - - -
13.12.2018 07:00:00 23,7 20,5 0 0 N 1014,7 10 -
13.12.2018 06:00:00 - - - - - - - -
13.12.2018 05:00:00 - - - - - - - -
13.12.2018 04:00:00 25,8 23,5 0 0 N 1012,7 10 -
13.12.2018 03:00:00 - - - - - - - -
13.12.2018 02:00:00 - - - - - - - -
13.12.2018 01:00:00 27,0 23,3 0 0 N 1012,9 10 -
13.12.2018 00:00:00 - - - - - - - -
12.12.2018 23:00:00 - - - - - - - -
12.12.2018 22:00:00 27,7 23,6 0 0 N 1013,1 10 -
12.12.2018 21:00:00 - - - - - - - -
12.12.2018 20:00:00 - - - - - - - -
12.12.2018 19:00:00 28,5 22,8 4 2 E 1011,6 10 -
12.12.2018 18:00:00 - - - - - - - -
12.12.2018 17:00:00 - - - - - - - -
12.12.2018 16:00:00 29,2 24,6 2 1 ESE 1011,0 10 -
12.12.2018 15:00:00 - - - - - - - -
12.12.2018 14:00:00 - - - - - - - -
12.12.2018 13:00:00 29,4 22,7 8 4 E 1012,5 10 -
12.12.2018 12:00:00 - - - - - - - -
12.12.2018 11:00:00 - - - - - - - -
12.12.2018 10:00:00 29,2 23,4 5 3 ESE 1013,9 10 -
12.12.2018 09:00:00 - - - - - - - -
12.12.2018 08:00:00 - - - - - - - -
12.12.2018 07:00:00 25,6 23,7 0 0 N 1012,3 10 -
12.12.2018 06:00:00 - - - - - - - -
12.12.2018 05:00:00 - - - - - - - -
12.12.2018 04:00:00 26,1 23,5 0 0 N 1010,3 10 -
12.12.2018 03:00:00 - - - - - - - -
12.12.2018 02:00:00 - - - - - - - -
12.12.2018 01:00:00 27,0 23,5 0 0 N 1011,5 10 -
12.12.2018 00:00:00 - - - - - - - -
11.12.2018 23:00:00 - - - - - - - -
11.12.2018 22:00:00 28,3 24,6 0 0 N 1012,3 10 -
11.12.2018 21:00:00 - - - - - - - -
11.12.2018 20:00:00 - - - - - - - -
11.12.2018 19:00:00 29,5 24,2 0 0 N 1011,5 10 -
11.12.2018 18:00:00 - - - - - - - -
11.12.2018 17:00:00 - - - - - - - -
11.12.2018 16:00:00 31,7 24,0 4 2 SSE 1009,6 10 -
11.12.2018 15:00:00 - - - - - - - -
11.12.2018 14:00:00 - - - - - - - -
11.12.2018 13:00:00 31,5 23,6 4 2 ESE 1010,7 10 -
11.12.2018 12:00:00 - - - - - - - -
11.12.2018 11:00:00 - - - - - - - -
11.12.2018 10:00:00 30,6 23,7 8 4 NW 1011,8 10 -
11.12.2018 09:00:00 - - - - - - - -
11.12.2018 08:00:00 - - - - - - - -
11.12.2018 07:00:00 25,8 22,8 0 0 N 1011,2 10 -
11.12.2018 06:00:00 - - - - - - - -
11.12.2018 05:00:00 - - - - - - - -
11.12.2018 04:00:00 26,4 24,5 0 0 N 1009,4 10 -
11.12.2018 03:00:00 - - - - - - - -
11.12.2018 02:00:00 - - - - - - - -
11.12.2018 01:00:00 27,2 24,5 0 0 N 1011,2 10 -
11.12.2018 00:00:00 - - - - - - - -
10.12.2018 23:00:00 - - - - - - - -
10.12.2018 22:00:00 27,3 24,9 0 0 N 1012,3 10 -
10.12.2018 21:00:00 - - - - - - - -
10.12.2018 20:00:00 - - - - - - - -
10.12.2018 19:00:00 28,1 22,8 0 0 N 1010,9 10 -
10.12.2018 18:00:00 - - - - - - - -
10.12.2018 17:00:00 - - - - - - - -
10.12.2018 16:00:00 29,5 22,9 4 2 ESE 1009,8 10 -
10.12.2018 15:00:00 - - - - - - - -
10.12.2018 14:00:00 - - - - - - - -
10.12.2018 13:00:00 30,0 23,2 5 3 NNW 1010,5 10 -
10.12.2018 12:00:00 - - - - - - - -
10.12.2018 11:00:00 - - - - - - - -
10.12.2018 10:00:00 28,4 22,2 0 0 N 1011,9 10 -
10.12.2018 09:00:00 - - - - - - - -
10.12.2018 08:00:00 - - - - - - - -
10.12.2018 07:00:00 25,2 23,1 0 0 N 1011,0 10 -
10.12.2018 06:00:00 - - - - - - - -
10.12.2018 05:00:00 - - - - - - - -
10.12.2018 04:00:00 25,8 23,2 0 0 N 1009,3 10 -
10.12.2018 03:00:00 - - - - - - - -
10.12.2018 02:00:00 - - - - - - - -
10.12.2018 01:00:00 26,3 23,2 0 0 N 1010,2 10 -
10.12.2018 00:00:00 - - - - - - - -
09.12.2018 23:00:00 - - - - - - - -
09.12.2018 22:00:00 27,3 25,0 0 0 N 1011,5 10 -
09.12.2018 21:00:00 - - - - - - - -
09.12.2018 20:00:00 - - - - - - - -
09.12.2018 19:00:00 28,2 24,0 0 0 N 1009,4 10 -
09.12.2018 18:00:00 - - - - - - - -
09.12.2018 17:00:00 - - - - - - - -
09.12.2018 16:00:00 30,0 23,2 4 2 E 1009,2 10 -
09.12.2018 15:00:00 - - - - - - - -
09.12.2018 14:00:00 - - - - - - - -
09.12.2018 13:00:00 30,0 23,8 0 0 N 1010,1 10 -
09.12.2018 12:00:00 - - - - - - - -
09.12.2018 11:00:00 - - - - - - - -
09.12.2018 10:00:00 27,2 24,0 0 0 N 1012,9 10 -
09.12.2018 09:00:00 - - - - - - - -
09.12.2018 08:00:00 - - - - - - - -
09.12.2018 07:00:00 25,4 24,7 0 0 N 1011,6 7 1,0
09.12.2018 06:00:00 - - - - - - - -
09.12.2018 05:00:00 - - - - - - - -
09.12.2018 04:00:00 25,3 24,6 0 0 N 1011,9 10 -
09.12.2018 03:00:00 - - - - - - - -
09.12.2018 02:00:00 - - - - - - - -
09.12.2018 01:00:00 25,9 24,6 0 0 N 1012,6 10 -
09.12.2018 00:00:00 - - - - - - - -
08.12.2018 23:00:00 - - - - - - - -
08.12.2018 22:00:00 26,8 25,7 0 0 N 1013,2 10 -
08.12.2018 21:00:00 - - - - - - - -
08.12.2018 20:00:00 - - - - - - - -
08.12.2018 19:00:00 26,2 25,5 0 0 N 1011,8 10 -
08.12.2018 18:00:00 - - - - - - - -
08.12.2018 17:00:00 - - - - - - - -
08.12.2018 16:00:00 26,7 25,3 4 2 WNW 1010,5 10 -
08.12.2018 15:00:00 - - - - - - - -
08.12.2018 14:00:00 - - - - - - - -
08.12.2018 13:00:00 27,0 24,1 8 4 WSW 1011,5 10 -
08.12.2018 12:00:00 - - - - - - - -
08.12.2018 11:00:00 - - - - - - - -
08.12.2018 10:00:00 24,2 23,2 8 4 ESE 1013,9 10 -
08.12.2018 09:00:00 - - - - - - - -
08.12.2018 08:00:00 - - - - - - - -
08.12.2018 07:00:00 26,5 24,3 0 0 N 1012,5 10 -
08.12.2018 06:00:00 - - - - - - - -
08.12.2018 05:00:00 - - - - - - - -
08.12.2018 04:00:00 28,7 23,6 0 0 N 1008,3 10 -
08.12.2018 03:00:00 - - - - - - - -
08.12.2018 02:00:00 - - - - - - - -
08.12.2018 01:00:00 29,8 23,3 0 0 N 1009,6 10 -
08.12.2018 00:00:00 - - - - - - - -
07.12.2018 23:00:00 - - - - - - - -
07.12.2018 22:00:00 30,4 24,1 0 0 N 1011,5 10 -
07.12.2018 21:00:00 - - - - - - - -
07.12.2018 20:00:00 - - - - - - - -
07.12.2018 19:00:00 31,5 24,4 0 0 N 1007,9 10 -
07.12.2018 18:00:00 - - - - - - - -
07.12.2018 17:00:00 - - - - - - - -
07.12.2018 16:00:00 33,5 22,9 4 2 ESE 1006,9 10 -

tt = temperature
td = dewpoint
ff = wind speed
dd = wind direction
ppp = reduced air pressure
vv = visibility
rr = precipitation

Next stations